This is the latest recevied weather packets stored in our database for station/object SP8C-13. If no packets are shown the sender has not sent any weather packets the latest 10 day(s).
| Time | Temp. | Humidity | Pressure | Rain* | Wind** | Luminosity | Snow |
|---|---|---|---|---|---|---|---|
| 1777635811 | 16.67° C | 41% | 1025.2 hPa | - | - | - | - |
| 1777634011 | 18.33° C | 37% | 1025.3 hPa | - | - | - | - |
| 1777632211 | 18.89° C | 39% | 1025.5 hPa | - | - | - | - |
| 1777630411 | 18.89° C | 39% | 1025.7 hPa | - | - | - | - |
| 1777628611 | 16.67° C | 41% | 1026.2 hPa | - | - | - | - |
| 1777626811 | 15.56° C | 42% | 1026.3 hPa | - | - | - | - |
| 1777625010 | 16.11° C | 40% | 1026.5 hPa | - | - | - | - |
| 1777623210 | 16.11° C | 39% | 1026.8 hPa | - | - | - | - |
| 1777621410 | 15.56° C | 41% | 1026.9 hPa | - | - | - | - |
| 1777619619 | 14.44° C | 47% | 1026.9 hPa | - | - | - | - |
| 1777617819 | 13.33° C | 51% | 1027 hPa | - | - | - | - |
| 1777616019 | 11.67° C | 51% | 1027.1 hPa | - | - | - | - |
| 1777614219 | 11.67° C | 54% | 1027.1 hPa | - | - | - | - |
| 1777612419 | 9.44° C | 60% | 1027 hPa | - | - | - | - |
| 1777610618 | 4.44° C | 60% | 1027 hPa | - | - | - | - |
| 1777608818 | 3.89° C | 62% | 1027.1 hPa | - | - | - | - |
| 1777607018 | 3.33° C | 62% | 1026.9 hPa | - | - | - | - |
| 1777605218 | 2.78° C | 62% | 1026.8 hPa | - | - | - | - |
| 1777603417 | 2.78° C | 63% | 1026.9 hPa | - | - | - | - |
| 1777601617 | 2.78° C | 61% | 1026.9 hPa | - | - | - | - |
| 1777599817 | 3.33° C | 59% | 1027 hPa | - | - | - | - |
| 1777598017 | 3.89° C | 58% | 1027.1 hPa | - | - | - | - |
| 1777596217 | 3.89° C | 59% | 1027 hPa | - | - | - | - |
| 1777594416 | 3.89° C | 59% | 1027 hPa | - | - | - | - |
| 1777592616 | 3.89° C | 57% | 1027.2 hPa | - | - | - | - |
* Rain since midnight (hover to see other rain measurements)
** Current wind speed in m/s (hover to see current wind gust speed)